PDT,Max TemperatureF,Mean TemperatureF,Min TemperatureF,Max Dew PointF,MeanDew PointF,Min DewpointF,Max Humidity, Mean Humidity, Min Humidity, Max Sea Level PressureIn, Mean Sea Level PressureIn, Min Sea Level PressureIn, Max VisibilityMiles, Mean VisibilityMiles, Min VisibilityMiles, Max Wind SpeedMPH, Mean Wind SpeedMPH, Max Gust SpeedMPH,PrecipitationIn, CloudCover, Events, WindDirDegrees
2013-4-1,46,42,39,43,41,37,100,95,82,30.19,30.11,30.03,10,2,0,8,2,,0.73,8,Fog-Rain,345
2013-4-2,55,48,42,45,42,39,100,86,57,30.20,30.18,30.12,10,6,0,9,3,,0.00,6,Fog-Rain,132
2013-4-3,57,50,44,44,42,39,86,74,59,30.12,30.03,29.87,10,10,10,12,6,,0.00,2,Rain,136
2013-4-4,48,44,39,46,42,37,100,94,74,29.95,29.84,29.73,10,3,0,23,12,44,0.77,8,Fog-Rain,183
2013-4-5,44,42,39,41,39,37,100,93,81,30.03,29.99,29.93,10,4,0,22,14,36,0.05,8,Fog-Rain,190
2013-4-6,43,40,37,42,37,36,100,95,85,30.07,29.99,29.86,10,2,0,24,13,41,0.22,8,Fog-Rain,203
2013-4-7,41,34,28,40,33,28,100,95,87,29.98,29.89,29.80,10,4,0,21,11,33,0.46,8,Fog-Rain-Snow,227
2013-4-8,37,32,28,36,32,27,100,96,87,30.27,30.13,29.91,5,1,0,14,3,20,0.12,8,Fog-Rain-Snow,11
2013-4-9,53,42,32,41,33,29,96,80,45,30.33,30.27,30.20,10,7,0,12,7,,0.00,5,Fog,45
2013-4-10,50,42,37,45,40,33,100,88,59,30.29,30.25,30.22,10,4,0,10,6,16,0.02,5,Fog-Rain,274
2013-4-11,48,38,30,36,33,30,100,88,61,30.27,30.20,30.11,10,5,0,14,8,20,0.00,2,Fog,3
2013-4-12,57,46,36,37,33,29,83,64,38,30.09,29.98,29.91,10,10,10,9,5,,0.00,3,,70
2013-4-13,45,36,28,36,30,26,100,86,57,30.11,30.01,29.93,10,6,0,12,5,17,0.01,7,Fog-Snow,341
2013-4-14,39,32,26,31,27,23,100,89,56,30.09,29.94,29.84,10,5,0,10,6,18,0.01,7,Fog-Snow,8
2013-4-15,36,32,28,34,29,26,100,94,87,30.16,29.94,29.85,10,1,0,14,2,28,0.19,8,Fog-Rain-Snow,346
2013-4-16,39,34,28,36,31,28,100,92,75,30.38,30.24,30.08,10,3,0,13,2,25,0.02,8,Fog-Rain-Snow,355
2013-4-17,48,38,30,34,29,26,100,84,44,30.45,30.37,30.30,10,6,0,15,7,21,0.00,3,Fog,13
2013-4-18,55,44,33,39,33,27,93,72,53,30.43,30.38,30.32,10,9,0,12,7,20,0.00,3,Fog,11
2013-4-19,55,47,37,43,40,36,100,85,53,30.32,30.29,30.26,10,8,0,7,4,,0.02,6,Fog-Rain,299
2013-4-20,57,46,36,38,36,33,100,82,45,30.30,30.27,30.21,10,6,0,16,6,24,0.00,3,Fog,11
2013-4-21,59,48,37,41,37,34,100,83,49,30.26,30.22,30.19,10,6,0,13,7,,0.00,2,Fog,12
2013-4-22,60,49,39,42,39,25,96,78,44,30.23,30.20,30.15,10,8,0,16,8,24,0.00,1,Fog,22
2013-4-23,62,50,41,25,18,10,44,29,21,30.20,30.12,30.06,10,10,10,15,8,28,0.00,0,,55
2013-4-24,69,56,43,31,22,16,40,28,15,30.07,30.01,29.94,10,10,10,15,10,23,0.00,0,,63
2013-4-25,69,59,50,36,32,28,50,39,27,30.12,30.01,29.92,10,10,10,13,7,24,0.00,0,,14
2013-4-26,73,63,54,41,36,32,51,41,24,30.22,30.16,30.09,10,10,10,13,7,21,0.00,0,,15
2013-4-27,72,60,46,42,33,27,51,37,27,30.24,30.19,30.14,10,10,10,13,3,18,0.00,0,,30
2013-4-28,63,53,44,42,33,16,82,52,30,30.23,30.18,30.15,10,10,10,14,8,20,0.00,0,,2
2013-4-29,55,45,35,43,38,32,93,75,49,30.21,30.12,30.06,10,10,10,12,3,23,0.00,5,,343
2013-4-30,50,38,28,32,26,23,93,74,37,30.32,30.18,30.08,10,8,1,15,7,32,0.00,4,,360